Date String (YYYY-MM-DD hh:mm:ss) UTC,Instrument flags,absolute air pressure of the measurement (hPa),sample flow rate (lpm),inlet stack bypass flow (lpm),air temperature of the measurement (°C),ambient temperature measured by the external sensor (°C),aerosol sample conditioner tube jacket temperature (°C),OPC LED temperature (°C),internal box temperature (°C),relative humidity of the measurement (%),span deviation,mass concentration of particles derived from Lorenz-Mie calculation of OPC scattering (μg/m³),mass concentration of particles derived from Lorenz-Mie calculation of OPC scattering (μg/m³),mass concentration of particles derived from Lorenz-Mie calculation of OPC scattering (μg/m³)
DateTimeUTC,F1_M11,P_M11,Q1_M11,Q2_M11,T1_M11,T2_M11,T3_M11,T4_M11,T5_M11,U1_M11,ZSPAN_M11,X0_M11,X2_M11,X1_M11
2023-09-07 17:00:00,SystemResetWarning,0833.1,5.00,000.00,028.0,025.2,000.0,036.2,029.3,22.9,0000.0,0008.83,0001.72,0001.12
2023-09-07 17:01:00,SystemResetWarning,0833.1,5.02,000.00,027.9,024.5,000.0,036.2,029.2,17.9,0000.0,0009.27,0001.94,0001.28
2023-09-07 17:02:00,SystemResetWarning,0833.3,4.99,000.00,027.9,024.8,000.0,036.1,029.2,13.1,0000.0,0009.83,0002.22,0001.52
2023-09-07 17:03:00,SystemResetWarning,0833.2,5.00,000.00,027.8,025.1,000.0,036.1,029.3,12.9,0000.0,0010.27,0002.66,0001.83
2023-09-07 17:04:00,SystemResetWarning,0833.0,5.01,000.00,027.9,025.5,000.0,036.1,029.4,20.8,0000.0,0010.56,0003.02,0002.07
2023-09-07 17:05:00,SystemResetWarning,0833.0,5.00,000.00,027.9,025.9,000.0,036.2,029.5,19.5,0000.0,0010.38,0003.13,0002.19
2023-09-07 17:06:00,SystemResetWarning,0833.0,5.00,000.00,027.9,026.3,000.0,036.2,029.6,15.4,0000.0,0009.79,0003.15,0002.21
2023-09-07 17:07:00,SystemResetWarning,0833.0,5.00,000.00,028.0,026.6,000.0,036.2,029.7,13.1,0000.0,0009.29,0003.18,0002.23
2023-09-07 17:08:00,SystemResetWarning,0833.0,5.00,000.00,028.0,026.8,000.0,036.2,029.7,12.8,0000.0,0009.23,0003.22,0002.25
2023-09-07 17:09:00,SystemResetWarning,0833.1,4.99,000.00,028.0,026.1,000.0,036.2,029.6,12.4,0000.0,0008.41,0003.22,0002.27
2023-09-07 17:10:00,SystemResetWarning,0833.0,5.00,000.00,027.9,024.8,000.0,036.2,029.1,12.2,0000.0,0007.75,0003.20,0002.26
2023-09-07 17:11:00,SystemResetWarning,0833.1,5.01,000.00,027.8,024.7,000.0,036.1,029.1,12.2,0000.0,0007.46,0003.11,0002.19
2023-09-07 17:12:00,SystemResetWarning,0833.3,5.00,000.00,027.8,025.0,000.0,036.1,029.2,12.2,0000.0,0007.17,0002.95,0002.04
2023-09-07 17:13:00,SystemResetWarning,0833.1,5.00,000.00,027.8,025.3,000.0,036.1,029.3,12.2,0000.0,0006.18,0002.75,0001.84
2023-09-07 17:14:00,SystemResetWarning,0833.2,5.00,000.00,027.8,025.7,000.0,036.1,029.4,12.0,0000.0,0005.37,0002.40,0001.60
2023-09-07 17:15:00,SystemResetWarning,0833.1,5.00,000.00,027.9,026.1,000.0,036.1,029.5,11.8,0000.0,0005.61,0002.00,0001.38
2023-09-07 17:16:00,SystemResetWarning,0833.2,5.00,000.00,027.9,026.4,000.0,036.2,029.6,12.4,0000.0,0006.39,0001.77,0001.21
2023-09-07 17:17:00,SystemResetWarning,0833.0,5.00,000.00,028.0,026.7,000.0,036.2,029.7,12.5,0000.0,0006.75,0001.73,0001.17
2023-09-07 17:18:00,SystemResetWarning,0833.0,5.00,000.00,028.0,026.1,000.0,036.2,029.5,12.6,0000.0,0007.29,0001.74,0001.15
2023-09-07 17:19:00,SystemResetWarning,0833.1,4.99,000.00,027.9,024.8,000.0,036.1,029.1,12.6,0000.0,0007.55,0001.70,0001.13
2023-09-07 17:20:00,SystemResetWarning,0833.1,5.02,000.00,027.8,024.7,000.0,036.0,029.2,12.3,0000.0,0007.53,0001.66,0001.11
2023-09-07 17:21:00,SystemResetWarning,0833.2,4.99,000.00,027.8,025.0,000.0,036.1,029.2,12.2,0000.0,0007.54,0001.66,0001.09
2023-09-07 17:22:00,SystemResetWarning,0833.2,5.00,000.00,027.8,025.4,000.0,036.1,029.3,12.4,0000.0,0007.57,0001.68,0001.09
2023-09-07 17:23:00,SystemResetWarning,0833.0,5.00,000.00,027.8,025.8,000.0,036.1,029.4,12.3,0000.0,0007.17,0001.67,0001.07
2023-09-07 17:24:00,SystemResetWarning,0833.1,5.01,000.00,027.8,026.1,000.0,036.1,029.4,12.0,0000.0,0007.02,0001.63,0001.06
2023-09-07 17:25:00,SystemResetWarning,0833.1,5.00,000.00,027.9,026.4,000.0,036.1,029.6,11.9,0000.0,0007.92,0001.62,0001.03
2023-09-07 17:26:00,SystemResetWarning,0832.9,5.00,000.00,027.9,026.7,000.0,036.1,029.6,11.8,0000.0,0007.82,0001.58,0000.94
2023-09-07 17:27:00,SystemResetWarning,0833.0,5.00,000.00,028.0,026.8,000.0,036.1,029.7,11.7,0000.0,0006.68,0001.58,0000.94
2023-09-07 17:28:00,SystemResetWarning,0833.0,4.99,000.00,028.0,025.7,000.0,036.1,029.4,11.9,0000.0,0006.31,0001.61,0000.96
2023-09-07 17:29:00,SystemResetWarning,0832.9,5.00,000.00,027.9,024.8,000.0,036.1,029.1,11.9,0000.0,0005.48,0001.58,0001.01
2023-09-07 17:30:00,SystemResetWarning,0832.9,5.01,000.00,027.8,025.0,000.0,036.0,029.2,11.4,0000.0,0006.55,0001.82,0001.13
2023-09-07 17:31:00,SystemResetWarning,0832.9,5.01,000.00,027.8,025.3,000.0,036.1,029.2,11.4,0000.0,0007.51,0001.92,0001.16
2023-09-07 17:32:00,SystemResetWarning,0833.0,5.00,000.00,027.8,025.7,000.0,036.1,029.4,11.7,0000.0,0007.79,0002.14,0001.28
2023-09-07 17:33:00,SystemResetWarning,0833.2,5.00,000.00,027.8,026.0,000.0,036.1,029.5,11.8,0000.0,0009.45,0002.58,0001.57
2023-09-07 17:34:00,SystemResetWarning,0833.3,5.00,000.00,027.9,026.4,000.0,036.1,029.6,11.5,0000.0,0010.45,0003.10,0001.93
2023-09-07 17:35:00,SystemResetWarning,0832.9,5.00,000.00,027.9,026.6,000.0,036.1,029.7,11.4,0000.4,0011.45,0003.51,0002.34
2023-09-07 17:36:00,SystemResetWarning,0833.2,4.99,000.00,028.0,026.3,000.0,036.1,029.6,11.7,0002.1,0011.79,0003.88,0002.69
2023-09-07 17:37:00,SystemResetWarning,0833.1,4.99,000.00,027.9,024.9,000.0,036.1,029.2,11.7,0001.4,0011.81,0004.06,0002.92
2023-09-07 17:38:00,SystemResetWarning,0833.4,5.01,000.00,027.8,024.7,000.0,036.0,029.2,11.6,0001.6,0011.80,0004.06,0002.91
2023-09-07 17:39:00,SystemResetWarning,0833.0,5.01,000.00,027.8,025.0,000.0,036.0,029.2,11.0,0001.6,0011.77,0004.06,0002.89
2023-09-07 17:40:00,SystemResetWarning,0833.0,4.99,000.00,027.8,025.3,000.0,036.1,029.2,10.9,0003.0,0012.50,0004.23,0003.06
2023-09-07 17:41:00,SystemResetWarning,0833.1,5.00,000.00,027.8,025.7,000.0,036.1,029.4,11.2,0003.5,0012.26,0004.35,0003.17
2023-09-07 17:42:00,SystemResetWarning,0832.9,5.00,000.00,027.8,026.1,000.0,036.1,029.5,11.3,0003.5,0012.01,0004.40,0003.22
2023-09-07 17:43:00,SystemResetWarning,0833.2,5.00,000.00,027.9,026.4,000.0,036.1,029.6,11.6,0003.1,0011.79,0004.29,0003.14
2023-09-07 17:44:00,SystemResetWarning,0832.9,4.99,000.00,027.9,026.1,000.0,036.1,029.5,11.2,0000.0,0010.18,0004.05,0002.91
2023-09-07 17:45:00,SystemResetWarning,0833.1,4.99,000.00,027.8,024.8,000.0,036.0,029.1,11.3,0000.0,0009.17,0003.73,0002.56
2023-09-07 17:46:00,SystemResetWarning,0832.9,5.02,000.00,027.7,024.5,000.0,036.0,029.1,11.4,0000.0,0008.18,0003.34,0002.15
2023-09-07 17:47:00,SystemResetWarning,0833.2,4.99,000.00,027.7,024.9,000.0,036.0,029.1,11.2,0000.0,0007.58,0002.86,0001.78
2023-09-07 17:48:00,SystemResetWarning,0833.0,5.00,000.00,027.7,025.2,000.0,036.0,029.2,11.1,0000.0,0007.91,0002.53,0001.55
2023-09-07 17:49:00,SystemResetWarning,0832.9,5.00,000.00,027.7,025.6,000.0,036.0,029.3,11.3,0000.0,0008.07,0002.51,0001.54
2023-09-07 17:50:00,SystemResetWarning,0833.0,5.01,000.00,027.8,026.0,000.0,036.0,029.4,11.2,0000.0,0008.15,0002.54,0001.54
2023-09-07 17:51:00,SystemResetWarning,0833.0,5.00,000.00,027.8,026.3,000.0,036.0,029.5,11.3,0000.0,0007.66,0002.25,0001.35
2023-09-07 17:52:00,SystemResetWarning,0832.8,5.00,000.00,027.9,026.6,000.0,036.1,029.6,11.2,0000.0,0006.93,0001.78,0001.06
2023-09-07 17:53:00,SystemResetWarning,0832.8,4.99,000.00,027.9,026.8,000.0,036.1,029.7,11.2,0000.0,0005.81,0001.47,0000.88
2023-09-07 17:54:00,SystemResetWarning,0832.8,4.98,000.00,027.9,025.9,000.0,036.1,029.4,11.2,0000.0,0005.81,0001.42,0000.88
2023-09-07 17:55:00,SystemResetWarning,0832.8,5.01,000.00,027.8,024.7,000.0,036.0,029.1,11.4,0000.0,0005.92,0001.40,0000.88
2023-09-07 17:56:00,SystemResetWarning,0832.8,5.01,000.00,027.8,024.8,000.0,036.0,029.2,11.5,0000.0,0005.82,0001.38,0000.87
2023-09-07 17:57:00,SystemResetWarning,0832.7,5.01,000.00,027.8,025.2,000.0,036.0,029.2,11.5,0000.0,0005.73,0001.38,0000.88
2023-09-07 17:58:00,SystemResetWarning,0832.7,4.99,000.00,027.8,025.5,000.0,036.0,029.3,11.9,0000.0,0005.96,0001.37,0000.89
2023-09-07 17:59:00,SystemResetWarning,0832.8,5.01,000.00,027.8,025.9,000.0,036.0,029.4,11.9,0000.0,0005.32,0001.36,0000.89
